Home   Weather   Euskirchen   Past weeks

Flag for Germany Past Weather in Euskirchen, North Rhine-Westphalia, Germany — Yesterday and Last 2 Weeks

Now
30 °F

Chilly.


Feels Like: 25 °F
Forecast: 24 / 39 °F
Wind: 5 mph from Southeast

Location: Noervenich

Current Time: Dec 4, 2016 at 11:44:18 pm

Latest Report: Dec 4, 2016 at 10:20 pm


Visibility: N/A

Pressure: 30.33 "Hg

Humidity: 75%

Dew Point: 23 °F

Location of EuskirchenLocation

Past Weather in Euskirchen — Graph

°F

Euskirchen Temperature Yesterday

Maximum temperature yesterday: 36 °F (at 3:20 pm)
Minimum temperature yesterday: 27 °F (at 9:20 pm)
Average temperature yesterday: 30 °F

High & Low Weather Summary for the Past Weeks

 TemperatureHumidityPressure
High57 °F (Nov 20, 2:20 pm)100% (Nov 23, 5:20 am)30.57 "Hg (Nov 23, 5:20 am)
Low19 °F (Nov 30, 2:20 am)45% (Nov 30, 2:20 pm)29.33 "Hg (Nov 20, 10:20 am)
Average41 °F85%30.12 "Hg
* Reported Nov 19 10:20 pm — Dec 4 10:20 pm, Euskirchen, Weather by CustomWeather, © 2016

Note: Actual official high and low records may vary slightly from our data, if they occured in-between our weather recording intervals... More about our weather records

Advertising

Euskirchen Weather History for the Previous 24 Hours

Scroll right to see more
 ConditionsComfort  
Time TempWeatherWind HumidityBarometerVisibility
10:20 pm
Sun, Dec 4
30 °FChilly.5 mph75%30.33 "HgN/A
9:20 pm32 °FChilly.7 mph75%30.30 "HgN/A
8:20 pm32 °FChilly.7 mph75%30.30 "HgN/A
7:20 pm32 °FChilly.7 mph75%30.30 "HgN/A
6:20 pm34 °FChilly.6 mph70%30.30 "HgN/A
5:20 pm34 °FChilly.7 mph70%30.30 "HgN/A
4:20 pm36 °FChilly.7 mph70%30.30 "HgN/A
3:20 pm37 °FChilly.8 mph65%30.30 "HgN/A
2:20 pm36 °FChilly.7 mph70%30.30 "HgN/A
1:20 pm36 °FPassing clouds.7 mph75%30.30 "HgN/A
12:20 pm32 °FPassing clouds.8 mph87%30.33 "HgN/A
11:20 am30 °FPassing clouds.7 mph86%30.33 "HgN/A
10:20 am28 °FPassing clouds.6 mph93%30.33 "HgN/A
9:20 am27 °FPassing clouds.3 mph100%30.33 "HgN/A
8:20 am27 °FPassing clouds.5 mph93%30.33 "HgN/A
7:20 am25 °FPassing clouds.2 mph100%30.30 "HgN/A
6:20 am25 °FPassing clouds.2 mph100%30.30 "Hg5 mi
5:20 am25 °FPassing clouds.2 mph93%30.30 "Hg4 mi
4:45 am25 °FIce fog.2 mph100%30.30 "Hg1 mi
4:20 am25 °FIce fog.2 mph100%30.30 "Hg1 mi
3:20 am27 °FIce fog.3 mph100%30.30 "Hg1 mi
2:20 am27 °FIce fog.3 mph100%30.33 "Hg1 mi
1:20 am28 °FIce fog.3 mph93%30.33 "Hg0 mi
12:20 am28 °FIce fog.3 mph100%30.30 "Hg0 mi
11:20 pm
Sat, Dec 3
28 °FIce fog.2 mph100%30.30 "Hg1 mi
Weather by CustomWeather, © 2016

See weather overviewHow to use our weather pages